Regional Weather Roundup
Issued by NWS Sioux Falls, SD

Home | Current Version | Previous Version | Graphics & Text | Print | Product List | Glossary On
Versions: 1 2 3 4 5 6 7 8 9 10 11 12 13 14 15 16 17 18 19 20 21 22 23 24 25 26 27 28 29 30 31 32 33 34 35 36 37 38 39 40 41 42 43 44 45 46 47 48 49 50
000
ASUS43 KFSD 251910
RWRFSD

WEATHER ROUNDUP FOR SE SOUTH DAKOTA/SW MINNESOTA/NW IOWA
NATIONAL WEATHER SERVICE SIOUX FALLS SD
100 PM CST SUN FEB 25 2018

NOTE: "FAIR" INDICATES FEW OR NO CLOUDS BELOW 12,000 FEET WITH NO
SIGNIFICANT WEATHER AND OR OBSTRUCTIONS TO VISIBILITY.


SDZ038>040-050-052>070-252000-
SOUTHEAST SOUTH DAKOTA

CITY           SKY/WX    TMP DP  RH WIND       PRES   REMARKS
BROOKINGS      SUNNY     27  18  69 W10       29.82R WCI  17
CHAMBERLAIN    SUNNY     32  20  61 SW12      29.87S WCI  23
HURON          SUNNY     30  21  69 SW7       29.85R WCI  23
MADISON        FAIR      25  21  86 W14       29.83R WCI  13
MITCHELL       MOSUNNY   29  19  66 SW15      29.89R WCI  18
SIOUX FALLS    MOSUNNY   28  18  66 W10G21    29.88R WCI  19
WINNER         FAIR      32  18  56 SW10      29.87F WCI  24
YANKTON        SUNNY     34  18  52 W14       29.91F WCI  25
$$

MNZ071-072-080-081-089-090-097-098-252000-
SOUTHWEST MINNESOTA

CITY           SKY/WX    TMP DP  RH WIND       PRES   REMARKS
FAIRMONT       FLURRIES  26  18  71 W17       29.85S WCI  13
JACKSON        SUNNY     25  19  80 W21G26    29.84R WCI  10
LUVERNE        SUNNY     27  19  74 W14       29.86S WCI  15
MARSHALL       SUNNY     30  23  75 W22       29.79R WCI  17
MONTEVIDEO     FLURRIES  34  21  60 NW13      29.77S WCI  25
PIPESTONE      SUNNY     25  18  74 W18       29.82R WCI  11
REDWOOD FALLS  SUNNY     27  21  78 W14G23    29.79S WCI  16
TRACY          SUNNY     29  24  82 W17G24    29.79R WCI  17
WORTHINGTON    MOSUNNY   25  20  81 W21       29.83S WCI  11
$$

IAZ001>003-012>014-020>022-031-032-NEZ013-014-SDZ071-252000-
NORTHWEST IOWA

CITY           SKY/WX    TMP DP  RH WIND       PRES   REMARKS
CHEROKEE       SUNNY     32  21  63 W12       29.92S WCI  23
DENISON        SUNNY     34  21  60 SW12      29.97R WCI  25
ESTHERVILLE    SUNNY     24  17  74 W23       29.84S WCI   9
LE MARS        SUNNY     32  19  59 W9        29.93R WCI  24
ORANGE CITY    SUNNY     30  25  80 W16G22    29.90R WCI  19
SHELDON        SUNNY     27  19  74 W21       29.86F WCI  13
SIOUX CITY     SUNNY     34  20  56 W8        29.95R WCI  27
SPENCER        SUNNY     27  19  72 W15       29.88S WCI  15
STORM LAKE     SUNNY     30  19  64 W20G28    29.90R WCI  18
$$

ABBREVIATIONS USED IN REMARKS
   TC - TEMPERATURE IN CELSIUS
  WCI - WIND CHILL INDEX
   HX - HEAT INDEX
  VSB - VISIBILITY





USA.gov is the U.S. government's official web portal to all federal, state and local government web resources and services.